User: anonymous
Location: Unspecified
(0.0000°N, 0.0000°E)
Time: 11:49:22
(UTC+02:00)
Language:

Cosmos 1295 Rocket - Orbit

View from above orbital plane
View from above orbital plane
View from above satellite
View from above satellite

Ground track
Ground track

The orbit data is extracted from the following two-line orbital elements,

1 12682U 81077B   14260.54892236  .00000111  00000-0  94252-4 0  7711
2 12682 082.9173 046.7476 0032693 278.5683 126.2027 13.78457005664597
Epoch (UTC): 17 September 2014 13:10:26
Eccentricity: 0.0032693
inclination: 82.9173°
perigee height: 945 km
apogee height: 993 km
right ascension of ascending node: 46.7476°
argument of perigee: 278.5683°
revolutions per day: 13.78457005
mean anomaly at epoch: 126.2027°
orbit number at epoch: 66459

The dashed part of the orbit path shows where the satellite is in the earth's shadow,  

DLR